Weather History for Bellaire, MI

Change the Weather History Date:

Friday, October 12, 2012

  Actual Average (KTVC) Record (KTVC)
Temperature  
Mean Temperature 40 °F 50 °F  
Max Temperature 50 °F 59 °F 84 °F (1995)
Min Temperature 31 °F 40 °F 26 °F (1906)
Degree Days  
Heating Degree Days 24 16  
Month to date heating degree days 165  
Since 1 July heating degree days 427  
Cooling Degree Days 0 0  
Month to date cooling degree days 0  
Year to date cooling degree days 407  
Moisture  
Dew Point 31 °F    
Average Humidity 72    
Maximum Humidity 96    
Minimum Humidity 37    
Precipitation  
Precipitation 0.00 in 0.11 in 1.24 in (1986)
Month to date precipitation 1.28  
Year to date precipitation 25.92  
Sea Level Pressure  
Sea Level Pressure 30.35 in    
Wind  
Wind Speed 4 mph (NNE)    
Max Wind Speed 9 mph    
Max Gust Speed 29 mph    
Visibility 10 miles    
Events Rain    
T = Trace of Precipitation, MM = Missing Value Source: NWS Daily Summary

Daily Weather History Graph

Daily Weather History Graph

Search for Another Location

Airport:

Trip Planner

Search our weather history database for the weather conditions in past years. The results will help you decide how hot, cold, wet, or windy it might be!

Date:

Astronomy

Oct. 12, 2012 Rise Set
Actual Time 7:53 AM EDT 7:00 PM EDT
Civil Twilight 7:23 AM EDT 7:29 PM EDT
Nautical Twilight 6:49 AM EDT 8:03 PM EDT
Astronomical Twilight 6:15 AM EDT 8:37 PM EDT
Moon 4:28 AM EDT (10/12) 5:15 PM EDT (10/12)
Length of Visible Light 12h 05m
Length of Day
11h 07m
Waning Crescent, 11% of the Moon is Illuminated
Oct 12
Waning Crescent
Oct 15
New
Oct 21
First Quarter
Oct 29
Full
Nov 6
Last Quarter

Hourly Weather History & Observations

Time (EDT) Temp. Windchill Dew Point Humidity Pressure Visibility Wind Dir Wind Speed Gust Speed Precip Events Conditions
12:12 AM 40.5 °F 34.6 °F 34.0 °F 78% 30.19 in 4.0 mi NNW 9.2 mph 28.8 mph N/A Rain Rain
12:33 AM 39.7 °F 36.5 °F 34.7 °F 82% 30.19 in 10.0 mi NW 4.6 mph - N/A   Overcast
12:53 AM 39.6 °F - 34.5 °F 82% 30.20 in 10.0 mi Calm Calm - N/A   Overcast
1:12 AM 40.1 °F 38.0 °F 33.4 °F 77% 30.21 in 10.0 mi NNW 3.5 mph - N/A   Overcast
1:33 AM 40.3 °F 37.1 °F 32.0 °F 72% 30.22 in 10.0 mi NNW 4.6 mph - N/A   Scattered Clouds
1:52 AM 40.1 °F 36.1 °F 32.0 °F 73% 30.23 in 10.0 mi North 5.8 mph - N/A   Clear
2:12 AM 39.7 °F 36.5 °F 31.8 °F 73% 30.24 in 10.0 mi NNW 4.6 mph - N/A   Clear
2:33 AM 39.6 °F 37.4 °F 31.6 °F 73% 30.25 in 10.0 mi NNW 3.5 mph - N/A   Clear
2:52 AM 39.2 °F 35.9 °F 31.8 °F 75% 30.26 in 10.0 mi NNW 4.6 mph - N/A   Clear
3:12 AM 39.7 °F 35.6 °F 32.0 °F 74% 30.26 in 10.0 mi NNE 5.8 mph - N/A   Scattered Clouds
3:33 AM 38.8 °F - 32.0 °F 76% 30.27 in 10.0 mi Calm Calm - N/A   Overcast
3:52 AM 39.2 °F - 32.0 °F 75% 30.27 in 10.0 mi Calm Calm - N/A   Overcast
4:13 AM 39.7 °F - 32.0 °F 74% 30.28 in 10.0 mi Calm Calm - N/A   Overcast
4:33 AM 39.0 °F 36.8 °F 31.1 °F 73% 30.29 in 10.0 mi NW 3.5 mph - N/A   Scattered Clouds
4:52 AM 38.5 °F 36.1 °F 30.2 °F 72% 30.30 in 10.0 mi NE 3.5 mph - N/A   Scattered Clouds
5:13 AM 36.3 °F - 32.0 °F 84% 30.31 in 10.0 mi Calm Calm - N/A   Mostly Cloudy
5:33 AM 36.5 °F 32.7 °F 32.7 °F 86% 30.33 in 5.0 mi North 4.6 mph - N/A Rain Light Rain
5:52 AM 35.6 °F 32.8 °F 32.9 °F 90% 30.34 in 7.0 mi NNE 3.5 mph - N/A Rain Light Rain
6:13 AM 33.4 °F 28.1 °F 32.0 °F 94% 30.34 in 10.0 mi East 5.8 mph - N/A   Clear
6:52 AM 32.0 °F - 31.1 °F 96% 30.35 in 10.0 mi Calm Calm - N/A   Mostly Cloudy
7:13 AM 32.2 °F - 31.1 °F 96% 30.36 in 10.0 mi Calm Calm - N/A   Overcast
7:33 AM 32.0 °F - 30.9 °F 96% 30.37 in 10.0 mi Calm Calm - N/A   Mostly Cloudy
7:53 AM 31.6 °F - 30.4 °F 95% 30.38 in 10.0 mi Calm Calm - N/A   Scattered Clouds
8:13 AM 31.8 °F - 30.4 °F 94% 30.39 in 10.0 mi Calm Calm - N/A   Clear
8:33 AM 32.0 °F 27.5 °F 30.7 °F 95% 30.40 in 10.0 mi East 4.6 mph - N/A   Clear
8:53 AM 33.6 °F 30.6 °F 32.2 °F 94% 30.40 in 10.0 mi NNE 3.5 mph - N/A   Clear
9:13 AM 35.6 °F 30.7 °F 34.0 °F 94% 30.41 in 10.0 mi NE 5.8 mph - N/A   Clear
9:32 AM 37.0 °F 34.5 °F 35.2 °F 93% 30.42 in 10.0 mi ENE 3.5 mph - N/A   Clear
9:53 AM 38.3 °F - 35.1 °F 88% 30.43 in 10.0 mi Calm Calm - N/A   Clear
10:13 AM 40.6 °F 36.0 °F 35.4 °F 82% 30.42 in 10.0 mi ENE 6.9 mph - N/A   Clear
10:32 AM 42.8 °F 38.6 °F 33.6 °F 70% 30.43 in 10.0 mi ENE 6.9 mph - N/A   Clear
10:53 AM 43.7 °F 39.7 °F 33.1 °F 66% 30.43 in 10.0 mi ENE 6.9 mph - N/A   Clear
11:13 AM 44.8 °F 40.4 °F 32.2 °F 61% 30.43 in 10.0 mi ENE 8.1 mph - N/A   Clear
11:33 AM 45.0 °F 42.6 °F 29.7 °F 55% 30.43 in 10.0 mi North 4.6 mph - N/A   Clear
11:53 AM 45.5 °F 43.2 °F 29.1 °F 53% 30.43 in 10.0 mi North 4.6 mph - N/A   Scattered Clouds
12:13 PM 45.9 °F 43.6 °F 24.8 °F 44% 30.43 in 10.0 mi NNE 4.6 mph - N/A   Scattered Clouds
12:33 PM 45.7 °F 43.4 °F 27.7 °F 49% 30.44 in 10.0 mi NE 4.6 mph - N/A   Mostly Cloudy
12:53 PM 46.2 °F 45.0 °F 29.1 °F 51% 30.44 in 10.0 mi North 3.5 mph - N/A   Overcast
1:13 PM 47.1 °F - 29.1 °F 50% 30.43 in 10.0 mi North 4.6 mph - N/A   Mostly Cloudy
1:33 PM 46.9 °F - 27.5 °F 47% 30.43 in 10.0 mi East 5.8 mph - N/A   Mostly Cloudy
1:53 PM 47.1 °F - 26.6 °F 45% 30.42 in 10.0 mi NE 3.5 mph - N/A   Overcast
2:33 PM 47.8 °F - 25.7 °F 42% 30.41 in 10.0 mi NW 5.8 mph 17.3 mph N/A   Overcast
2:53 PM 49.3 °F - 23.9 °F 37% 30.40 in 10.0 mi WSW 3.5 mph - N/A   Overcast
3:12 PM 50.2 °F - 24.4 °F 37% 30.40 in 10.0 mi ESE 4.6 mph - N/A   Mostly Cloudy
3:33 PM 48.6 °F - 23.5 °F 37% 30.40 in 10.0 mi North 3.5 mph - N/A   Scattered Clouds
3:53 PM 49.1 °F - 24.8 °F 39% 30.38 in 10.0 mi NNW 6.9 mph - N/A   Scattered Clouds
4:13 PM 49.3 °F - 24.4 °F 38% 30.39 in 10.0 mi West 4.6 mph - N/A   Mostly Cloudy
4:33 PM 49.3 °F - 25.3 °F 39% 30.38 in 10.0 mi NNE 4.6 mph - N/A   Scattered Clouds
4:53 PM 49.3 °F - 25.2 °F 39% 30.38 in 10.0 mi NE 4.6 mph - N/A   Scattered Clouds
5:13 PM 49.6 °F - 25.3 °F 39% 30.37 in 10.0 mi WNW 4.6 mph - N/A   Scattered Clouds
5:33 PM 49.3 °F - 26.1 °F 40% 30.38 in 10.0 mi NNW 4.6 mph - N/A   Scattered Clouds
6:13 PM 48.2 °F - 27.3 °F 44% 30.36 in 10.0 mi North 4.6 mph - N/A   Mostly Cloudy
6:53 PM 45.3 °F 42.3 °F 32.9 °F 62% 30.37 in 10.0 mi North 5.8 mph - N/A   Overcast
7:13 PM 43.2 °F 39.0 °F 33.1 °F 68% 30.37 in 10.0 mi North 6.9 mph - N/A   Overcast
7:33 PM 42.4 °F 40.7 °F 35.2 °F 76% 30.36 in 10.0 mi North 3.5 mph - N/A   Overcast
7:53 PM 41.5 °F - 34.9 °F 77% 30.36 in 10.0 mi Calm Calm - N/A   Mostly Cloudy
8:13 PM 39.6 °F 35.4 °F 33.8 °F 80% 30.35 in 10.0 mi ENE 5.8 mph - N/A   Scattered Clouds
8:33 PM 37.4 °F 32.8 °F 33.4 °F 86% 30.36 in 10.0 mi North 5.8 mph - N/A   Clear
8:53 PM 36.7 °F - 33.8 °F 89% 30.36 in 10.0 mi Calm Calm - N/A   Clear
9:14 PM 36.5 °F 31.8 °F 33.4 °F 89% 30.34 in 10.0 mi NE 5.8 mph - N/A   Clear
9:33 PM 36.7 °F 32.0 °F 33.8 °F 89% 30.34 in 10.0 mi NNE 5.8 mph - N/A   Clear
9:53 PM 36.9 °F 33.1 °F 33.8 °F 89% 30.35 in 10.0 mi North 4.6 mph - N/A   Clear
10:13 PM 36.3 °F 31.6 °F 33.1 °F 88% 30.35 in 10.0 mi NNE 5.8 mph - N/A   Clear
10:33 PM 35.1 °F 30.1 °F 32.2 °F 89% 30.34 in 10.0 mi NE 5.8 mph - N/A   Clear
10:53 PM 35.6 °F 31.7 °F 32.9 °F 90% 30.34 in 10.0 mi North 4.6 mph - N/A   Clear
11:13 PM 35.2 °F 31.2 °F 32.4 °F 89% 30.34 in 10.0 mi North 4.6 mph - N/A   Clear
11:33 PM 34.9 °F 29.0 °F 32.4 °F 91% 30.33 in 10.0 mi ENE 6.9 mph - N/A   Clear
11:53 PM 34.9 °F 29.9 °F 32.5 °F 91% 30.33 in 10.0 mi NE 5.8 mph - N/A   Clear